Location: Boulin
(43.2500°N, 0.1333°E)
Time: 10:39:42
(UTC+00:00)

Cosmos 2333 Rocket - Pass Details

Date: 11 December 2025
Orbit: 838 x 865 km, 70.8° (Epoch: 21 January)

Event Time Altitude Azimuth Distance (km) Brightness Sun altitude
Rises 18:48:13 0° 172° (S) 3,408 5.4 -25.4°
Reaches altitude 10° 18:50:56 10° 162° (SSE) 2,481 4.5 -25.9°
Enters shadow 18:51:12 11° 160° (SSE) 2,393 4.4 -25.9°
